Content
SEND FEEDBACK

Daily
Averages
Monthly
Summary
Canada

MONTREAL, QUEBEC


Home > North America > Canada > Quebec
Elevation: 118 feet     Latitude: 45 28N     Longitude: 073 45W

WEATHER
 
SELECT A DAY
Number of Records: 201,418;   Date Range: 1/1/95 - 10/20/14
 
SHARE

PRINT THIS DATA

[ ← Previous Day ]
WEATHER ALMANAC - FEBRUARY 2, 2013
[ Next Day → ]
[ °C ]   °F
Weather ElementAverageHighLow
Temperature6.7 °F10.4 °F (12:25 pm)1 °F (7:00 am)
Dewpoint-2.4 °F5 °F (3:00 pm)-11.2 °F (7:00 am)
Humidity65.7 %79 % (3:00 pm)41 % (7:00 am)
Wind Speed7.4 mph11.5 mph (3:44 pm)
Weather ElementAverage
Visibility9 mi
Wind DirectionESE (126.5 °)

Weather ElementTotal
Precipitation---
Heating Degree Days59.3 (Base 65)
Averaged from 37 records on February 2, 2013
WEATHER CONDITIONS BREAKOUT
WIND DIRECTION BREAKOUT
WEATHER BY HOUR - FEBRUARY 2, 2013
[ °C ]   °F
Local TimeTemperatureDewpointHumidityBarometerVisibilityWind DirectionWind SpeedGust SpeedPrecipitationEventsConditions
1:00 AM4.0 °F-8.0 °F43 %30.19 in15.0 miWest (280°)8.1 mph
1:00 AM5.0 °F-7.6 °F56 %30.19 in15.0 miWest (280°)9.2 mphClear
2:00 AM3.2 °F-7.6 °F61 %30.19 in15.0 miWNW (290°)10.4 mphPartly Cloudy
3:00 AM3.2 °F-7.6 °F61 %30.21 in15.0 miNW (310°)4.6 mphPartly Cloudy
4:00 AM1.4 °F-9.4 °F61 %30.21 in15.0 miWest (260°)4.6 mphScattered Clouds
5:00 AM1.4 °F-9.4 °F61 %30.21 in15.0 miWest (280°)4.6 mphMostly Cloudy
6:00 AM1.4 °F-9.4 °F61 %30.20 in15.0 miNW (320°)5.8 mphOvercast
7:00 AM1.0 °F-11.0 °F41 %30.20 in15.0 miNNW (330°)5.8 mphOvercast
7:00 AM1.4 °F-11.2 °F56 %30.20 in15.0 miNNW (340°)5.8 mphOvercast
8:00 AM1.4 °F-11.2 °F56 %30.21 in15.0 miNW (320°)2.3 mphOvercast
9:00 AM5.0 °F-9.4 °F52 %30.20 in15.0 miNNE (20°)2.3 mphOvercast
9:21 AM5.0 °F0.0 °F15.0 miNorth (360°)2.3 mphSnowLight Snow Showers
10:00 AM5.0 °F-5.8 °F61 %30.19 in7.0 miNNE (30°)4.6 mphSnowLight Snow Showers
11:00 AM8.6 °F-0.4 °F67 %30.16 in15.0 miENE (60°)5.8 mphSnowLight Snow
11:25 AM8.6 °F0.0 °F3.0 miNE (50°)5.8 mphSnowLight Snow
11:41 AM8.6 °F0.0 °F6.0 miENE (60°)8.1 mphSnowLight Snow
12:00 PM8.6 °F1.4 °F73 %30.12 in4.0 miENE (60°)6.9 mphSnowLight Snow
12:25 PM10.4 °F0.0 °F3.0 miENE (60°)6.9 mphSnowLight Snow
12:46 PM10.4 °F0.0 °F5.0 miEast (80°)6.9 mphSnowLight Snow
1:00 PM10.0 °F2.0 °F60 %30.09 in5.0 miENE (70°)6.9 mphSnowLight Snow
1:00 PM10.4 °F3.2 °F73 %30.09 in5.0 miEast (80°)6.9 mphSnowLight Snow
2:00 PM10.4 °F3.2 °F73 %30.08 in5.0 miNNE (30°)6.9 mphSnowLight Snow
2:18 PM10.4 °F0.0 °F3.0 miNE (40°)6.9 mphSnowLight Snow
2:46 PM10.4 °F0.0 °F5.0 miNorth (360°)9.2 mphSnowLight Snow
3:00 PM10.4 °F5.0 °F79 %30.07 in3.0 miNNE (30°)10.4 mphSnowLight Snow
3:14 PM10.4 °F0.0 °F1.2 miNNE (30°)10.4 mphSnowLight Snow
3:19 PM10.4 °F0.0 °F1.5 miNNE (30°)10.4 mphSnowLight Snow
3:44 PM10.4 °F0.0 °F4.0 miNNE (20°)11.5 mphSnowLight Snow
4:00 PM10.4 °F5.0 °F79 %30.06 in6.0 miNNE (30°)11.5 mphSnowLight Snow
5:00 PM8.6 °F3.2 °F79 %30.07 in6.0 miNNE (30°)9.2 mphSnowLight Snow
6:00 PM8.6 °F1.4 °F73 %30.07 in12.0 miNNE (30°)9.2 mphSnowLight Snow
7:00 PM6.0 °F0.0 °F68 %30.08 in15.0 miNNE (20°)8.1 mphSnowLight Snow
7:00 PM6.8 °F1.4 °F79 %30.08 in15.0 miNNE (20°)8.1 mphSnowLight Snow
8:00 PM5.0 °F-0.4 °F78 %30.09 in1.8 miNNE (20°)11.5 mphSnowLight Snow
9:00 PM5.0 °F-0.4 °F78 %30.09 in3.0 miNNE (20°)9.2 mphSnowLight Snow
10:00 PM5.0 °F-2.2 °F72 %30.09 in10.0 miNNE (20°)9.2 mphSnowLight Snow
11:00 PM5.0 °F-2.2 °F72 %30.08 in10.0 miNorth (10°)9.2 mphSnowLight Snow
Hourly data recorded from CYUL, located miles away from Montreal, Quebec







STORIES FROM OUR PARTNERS